Time,TemperatureF,DewpointF,PressureIn,WindDirection,WindDirectionDegrees,WindSpeedMPH,WindSpeedGustMPH,Humidity,HourlyPrecipIn,Conditions,Clouds,dailyrainin,SoftwareType,DateUTC
2013-09-18 07:34:00,66.1,61.1,29.73,SSE,154,3.0,3.0,84,0.00,,,0.00,Wunderground v.1.15,2013-09-18 12:34:00,
2013-09-18 07:35:00,66.1,61.1,29.73,SSE,154,3.0,3.0,84,0.00,,,0.00,Wunderground v.1.15,2013-09-18 12:35:00,
2013-09-18 07:38:00,66.1,61.1,29.73,SSE,154,3.0,4.0,84,0.00,,,0.00,Wunderground v.1.15,2013-09-18 12:38:00,
2013-09-18 07:44:00,66.1,61.1,29.74,SSE,154,2.0,2.0,84,0.00,,,0.00,Wunderground v.1.15,2013-09-18 12:44:00,
2013-09-18 07:49:00,66.3,61.3,29.74,SSE,154,2.0,4.0,84,0.00,,,0.00,Wunderground v.1.15,2013-09-18 12:49:00,
2013-09-18 07:55:00,66.5,61.5,29.74,SSE,154,3.0,4.0,84,0.00,,,0.00,Wunderground v.1.15,2013-09-18 12:55:00,
2013-09-18 08:00:00,66.5,61.5,29.73,SSE,154,3.0,3.0,84,0.00,,,0.00,Wunderground v.1.15,2013-09-18 13:00:00,
2013-09-18 08:05:00,66.6,61.6,29.73,SSE,154,3.0,5.0,84,0.00,,,0.00,Wunderground v.1.15,2013-09-18 13:05:00,
2013-09-18 08:11:00,66.8,61.8,29.73,SSE,154,4.0,4.0,84,0.00,,,0.00,Wunderground v.1.15,2013-09-18 13:11:00,
2013-09-18 08:17:00,67.1,61.8,29.73,SSE,154,3.0,4.0,83,0.00,,,0.00,Wunderground v.1.15,2013-09-18 13:17:00,
2013-09-18 08:23:00,67.3,62.0,29.73,SSE,154,2.0,4.0,83,0.00,,,0.00,Wunderground v.1.15,2013-09-18 13:23:00,
2013-09-18 08:29:00,67.6,62.3,29.73,SSE,154,3.0,4.0,83,0.00,,,0.00,Wunderground v.1.15,2013-09-18 13:29:00,
2013-09-18 08:34:00,67.9,62.2,29.73,SSE,154,4.0,6.0,82,0.00,,,0.00,Wunderground v.1.15,2013-09-18 13:34:00,
2013-09-18 08:39:00,68.0,62.3,29.73,SSE,154,4.0,6.0,82,0.00,,,0.00,Wunderground v.1.15,2013-09-18 13:39:00,
2013-09-18 08:44:00,68.3,62.6,29.73,SSE,154,3.0,6.0,82,0.00,,,0.00,Wunderground v.1.15,2013-09-18 13:44:00,
2013-09-18 08:50:00,68.5,62.4,29.73,SSE,154,4.0,6.0,81,0.00,,,0.00,Wunderground v.1.15,2013-09-18 13:50:00,
2013-09-18 08:55:00,68.7,62.6,29.73,SSE,154,5.0,6.0,81,0.00,,,0.00,Wunderground v.1.15,2013-09-18 13:55:00,
2013-09-18 09:01:00,68.9,62.8,29.73,SSE,154,4.0,6.0,81,0.00,,,0.00,Wunderground v.1.15,2013-09-18 14:01:00,
2013-09-18 09:06:00,69.1,63.0,29.73,SSE,155,5.0,7.0,81,0.00,,,0.00,Wunderground v.1.15,2013-09-18 14:06:00,
2013-09-18 09:11:00,69.4,63.0,29.73,SSE,164,5.0,6.0,80,0.00,,,0.00,Wunderground v.1.15,2013-09-18 14:11:00,
2013-09-18 09:16:00,69.5,63.1,29.72,SSE,165,5.0,7.0,80,0.00,,,0.00,Wunderground v.1.15,2013-09-18 14:16:00,
2013-09-18 09:22:00,69.7,63.3,29.72,SSE,163,6.0,6.0,80,0.00,,,0.00,Wunderground v.1.15,2013-09-18 14:22:00,
2013-09-18 09:27:00,70.1,63.3,29.73,SSE,165,5.0,6.0,79,0.00,,,0.00,Wunderground v.1.15,2013-09-18 14:27:00,
2013-09-18 09:33:00,70.6,63.8,29.73,SSW,192,4.0,6.0,79,0.00,,,0.00,Wunderground v.1.15,2013-09-18 14:33:00,
2013-09-18 09:39:00,70.8,64.0,29.72,SSW,198,5.0,6.0,79,0.00,,,0.00,Wunderground v.1.15,2013-09-18 14:39:00,
2013-09-18 09:44:00,71.3,63.7,29.72,South,178,5.0,9.0,77,0.00,,,0.00,Wunderground v.1.15,2013-09-18 14:44:00,
2013-09-18 09:50:00,71.5,63.9,29.72,SSW,196,5.0,5.0,77,0.00,,,0.00,Wunderground v.1.15,2013-09-18 14:50:00,
2013-09-18 09:55:00,71.9,64.3,29.72,South,188,5.0,7.0,77,0.00,,,0.00,Wunderground v.1.15,2013-09-18 14:55:00,
2013-09-18 10:01:00,72.1,64.1,29.72,South,190,5.0,6.0,76,0.00,,,0.00,Wunderground v.1.15,2013-09-18 15:01:00,
2013-09-18 10:07:00,72.2,63.8,29.72,SSW,205,6.0,7.0,75,0.00,,,0.00,Wunderground v.1.15,2013-09-18 15:07:00,
2013-09-18 10:13:00,72.5,64.1,29.72,SSW,197,5.0,7.0,75,0.00,,,0.00,Wunderground v.1.15,2013-09-18 15:13:00,
2013-09-18 10:18:00,73.2,64.4,29.72,SSE,167,5.0,7.0,74,0.00,,,0.00,Wunderground v.1.15,2013-09-18 15:18:00,
2013-09-18 10:24:00,73.4,64.6,29.72,South,176,6.0,10.0,74,0.00,,,0.00,Wunderground v.1.15,2013-09-18 15:24:00,
2013-09-18 10:29:00,73.8,64.6,29.72,South,188,6.0,10.0,73,0.00,,,0.00,Wunderground v.1.15,2013-09-18 15:29:00,
2013-09-18 10:35:00,74.1,64.5,29.71,SW,216,6.0,9.0,72,0.00,,,0.00,Wunderground v.1.15,2013-09-18 15:35:00,
2013-09-18 10:40:00,74.5,64.5,29.72,South,182,6.0,6.0,71,0.00,,,0.00,Wunderground v.1.15,2013-09-18 15:40:00,
2013-09-18 10:47:00,74.8,64.8,29.71,SSE,166,6.0,8.0,71,0.00,,,0.00,Wunderground v.1.15,2013-09-18 15:47:00,
2013-09-18 10:52:00,75.3,64.8,29.71,South,170,6.0,7.0,70,0.00,,,0.00,Wunderground v.1.15,2013-09-18 15:52:00,
2013-09-18 10:57:00,75.7,65.2,29.71,SSE,165,5.0,8.0,70,0.00,,,0.00,Wunderground v.1.15,2013-09-18 15:57:00,
2013-09-18 11:01:00,75.9,65.4,29.70,South,180,6.0,9.0,70,0.00,,,0.00,Wunderground v.1.15,2013-09-18 16:01:00,
2013-09-18 11:07:00,76.2,65.3,29.70,South,181,7.0,9.0,69,0.00,,,0.00,Wunderground v.1.15,2013-09-18 16:07:00,
2013-09-18 11:12:00,76.9,66.0,29.70,South,177,6.0,6.0,69,0.00,,,0.00,Wunderground v.1.15,2013-09-18 16:12:00,
2013-09-18 11:18:00,77.2,65.4,29.70,SSE,161,5.0,9.0,67,0.00,,,0.00,Wunderground v.1.15,2013-09-18 16:18:00,
2013-09-18 11:23:00,77.5,66.1,29.70,SSE,157,6.0,7.0,68,0.00,,,0.00,Wunderground v.1.15,2013-09-18 16:23:00,
2013-09-18 11:29:00,78.1,66.2,29.70,SE,146,5.0,8.0,67,0.00,,,0.00,Wunderground v.1.15,2013-09-18 16:29:00,
2013-09-18 11:34:00,78.2,65.9,29.70,South,177,5.0,8.0,66,0.00,,,0.00,Wunderground v.1.15,2013-09-18 16:34:00,
2013-09-18 11:40:00,78.4,65.7,29.69,South,180,6.0,6.0,65,0.00,,,0.00,Wunderground v.1.15,2013-09-18 16:40:00,
2013-09-18 11:46:00,78.9,66.1,29.69,SSE,167,6.0,7.0,65,0.00,,,0.00,Wunderground v.1.15,2013-09-18 16:46:00,
2013-09-18 11:51:00,79.2,66.4,29.69,SSE,161,6.0,6.0,65,0.00,,,0.00,Wunderground v.1.15,2013-09-18 16:51:00,
2013-09-18 11:56:00,79.7,66.0,29.69,SSE,157,5.0,6.0,63,0.00,,,0.00,Wunderground v.1.15,2013-09-18 16:56:00,
2013-09-18 12:02:00,80.2,66.0,29.69,South,184,5.0,6.0,62,0.00,,,0.00,Wunderground v.1.15,2013-09-18 17:02:00,
2013-09-18 12:08:00,81.0,66.8,29.68,SSE,155,5.0,9.0,62,0.00,,,0.00,Wunderground v.1.15,2013-09-18 17:08:00,
2013-09-18 12:13:00,81.2,66.5,29.69,South,185,6.0,7.0,61,0.00,,,0.00,Wunderground v.1.15,2013-09-18 17:13:00,
2013-09-18 12:18:00,81.8,66.6,29.69,South,183,6.0,7.0,60,0.00,,,0.00,Wunderground v.1.15,2013-09-18 17:18:00,
2013-09-18 12:24:00,82.0,66.7,29.69,South,179,5.0,6.0,60,0.00,,,0.00,Wunderground v.1.15,2013-09-18 17:24:00,
2013-09-18 12:30:00,82.5,66.7,29.68,South,176,5.0,5.0,59,0.00,,,0.00,Wunderground v.1.15,2013-09-18 17:30:00,
2013-09-18 12:35:00,83.1,66.8,29.68,South,175,6.0,8.0,58,0.00,,,0.00,Wunderground v.1.15,2013-09-18 17:35:00,
2013-09-18 12:41:00,83.4,66.6,29.67,SSW,207,7.0,7.0,57,0.00,,,0.00,Wunderground v.1.15,2013-09-18 17:41:00,
2013-09-18 12:46:00,83.6,66.2,29.67,SSE,156,7.0,9.0,56,0.00,,,0.00,Wunderground v.1.15,2013-09-18 17:46:00,
2013-09-18 12:51:00,84.1,66.2,29.67,South,188,7.0,7.0,55,0.00,,,0.00,Wunderground v.1.15,2013-09-18 17:51:00,
2013-09-18 12:57:00,84.3,65.8,29.67,SSE,163,7.0,10.0,54,0.00,,,0.00,Wunderground v.1.15,2013-09-18 17:57:00,
2013-09-18 13:02:00,84.7,66.7,29.67,South,176,6.0,7.0,55,0.00,,,0.00,Wunderground v.1.15,2013-09-18 18:02:00,
2013-09-18 13:08:00,85.2,66.7,29.67,South,187,6.0,13.0,54,0.00,,,0.00,Wunderground v.1.15,2013-09-18 18:08:00,
2013-09-18 13:14:00,85.7,67.1,29.66,South,171,7.0,7.0,54,0.00,,,0.00,Wunderground v.1.15,2013-09-18 18:14:00,
2013-09-18 13:19:00,86.4,67.2,29.66,South,185,5.0,10.0,53,0.00,,,0.00,Wunderground v.1.15,2013-09-18 18:19:00,
2013-09-18 13:25:00,86.3,67.2,29.66,South,169,5.0,9.0,53,0.00,,,0.00,Wunderground v.1.15,2013-09-18 18:25:00,
2013-09-18 13:31:00,86.6,67.4,29.65,SSE,158,5.0,10.0,53,0.00,,,0.00,Wunderground v.1.15,2013-09-18 18:31:00,
2013-09-18 13:37:00,86.5,65.7,29.65,SSE,158,6.0,10.0,50,0.00,,,0.00,Wunderground v.1.15,2013-09-18 18:37:00,
2013-09-18 13:42:00,86.8,66.5,29.65,SSE,167,6.0,6.0,51,0.00,,,0.00,Wunderground v.1.15,2013-09-18 18:42:00,
2013-09-18 13:48:00,87.3,67.5,29.65,SSE,163,5.0,6.0,52,0.00,,,0.00,Wunderground v.1.15,2013-09-18 18:48:00,
2013-09-18 13:53:00,87.3,66.4,29.65,SSE,158,6.0,11.0,50,0.00,,,0.00,Wunderground v.1.15,2013-09-18 18:53:00,
2013-09-18 13:59:00,87.7,66.8,29.65,South,173,7.0,11.0,50,0.00,,,0.00,Wunderground v.1.15,2013-09-18 18:59:00,
2013-09-18 14:04:00,87.9,66.4,29.64,South,190,7.0,11.0,49,0.00,,,0.00,Wunderground v.1.15,2013-09-18 19:04:00,
2013-09-18 14:10:00,88.1,65.9,29.64,SSE,157,8.0,8.0,48,0.00,,,0.00,Wunderground v.1.15,2013-09-18 19:10:00,
2013-09-18 14:16:00,88.5,65.1,29.64,SSE,162,8.0,12.0,46,0.00,,,0.00,Wunderground v.1.15,2013-09-18 19:16:00,
2013-09-18 14:21:00,88.6,65.2,29.64,SSE,165,8.0,11.0,46,0.00,,,0.00,Wunderground v.1.15,2013-09-18 19:21:00,
2013-09-18 14:27:00,88.8,65.4,29.64,SSE,154,8.0,11.0,46,0.00,,,0.00,Wunderground v.1.15,2013-09-18 19:27:00,
2013-09-18 14:33:00,89.2,65.1,29.63,SSW,196,8.0,9.0,45,0.00,,,0.00,Wunderground v.1.15,2013-09-18 19:33:00,
2013-09-18 14:38:00,89.5,64.0,29.64,South,186,8.0,12.0,43,0.00,,,0.00,Wunderground v.1.15,2013-09-18 19:38:00,
2013-09-18 14:44:00,89.8,65.0,29.63,South,182,8.0,10.0,44,0.00,,,0.00,Wunderground v.1.15,2013-09-18 19:44:00,
2013-09-18 14:49:00,90.0,65.2,29.63,South,190,7.0,11.0,44,0.00,,,0.00,Wunderground v.1.15,2013-09-18 19:49:00,
2013-09-18 14:54:00,90.4,64.9,29.63,SSW,208,6.0,7.0,43,0.00,,,0.00,Wunderground v.1.15,2013-09-18 19:54:00,
2013-09-18 15:00:00,90.6,64.4,29.63,SW,218,6.0,9.0,42,0.00,,,0.00,Wunderground v.1.15,2013-09-18 20:00:00,
2013-09-18 15:05:00,90.7,65.1,29.63,South,186,7.0,9.0,43,0.00,,,0.00,Wunderground v.1.15,2013-09-18 20:05:00,
2013-09-18 15:11:00,90.9,65.3,29.63,South,173,6.0,10.0,43,0.00,,,0.00,Wunderground v.1.15,2013-09-18 20:11:00,
2013-09-18 15:17:00,90.7,64.5,29.62,SSW,192,7.0,11.0,42,0.00,,,0.00,Wunderground v.1.15,2013-09-18 20:17:00,
2013-09-18 15:22:00,90.9,64.6,29.62,South,177,7.0,8.0,42,0.00,,,0.00,Wunderground v.1.15,2013-09-18 20:22:00,
2013-09-18 15:28:00,91.1,64.8,29.62,SSW,211,7.0,9.0,42,0.00,,,0.00,Wunderground v.1.15,2013-09-18 20:28:00,
2013-09-18 15:34:00,91.5,65.2,29.62,South,188,6.0,7.0,42,0.00,,,0.00,Wunderground v.1.15,2013-09-18 20:34:00,
2013-09-18 15:40:00,91.6,64.6,29.62,SSW,192,6.0,7.0,41,0.00,,,0.00,Wunderground v.1.15,2013-09-18 20:40:00,
2013-09-18 15:45:00,91.3,65.0,29.62,SSW,198,6.0,7.0,42,0.00,,,0.00,Wunderground v.1.15,2013-09-18 20:45:00,
2013-09-18 15:50:00,91.7,64.7,29.61,South,188,6.0,6.0,41,0.00,,,0.00,Wunderground v.1.15,2013-09-18 20:50:00,
2013-09-18 15:56:00,91.6,64.6,29.61,SSE,168,7.0,11.0,41,0.00,,,0.00,Wunderground v.1.15,2013-09-18 20:56:00,
2013-09-18 16:01:00,91.6,64.6,29.61,SSE,163,6.0,7.0,41,0.00,,,0.00,Wunderground v.1.15,2013-09-18 21:01:00,
2013-09-18 16:07:00,91.7,65.4,29.61,South,182,6.0,7.0,42,0.00,,,0.00,Wunderground v.1.15,2013-09-18 21:07:00,
2013-09-18 16:12:00,91.9,64.1,29.61,SSW,192,6.0,11.0,40,0.00,,,0.00,Wunderground v.1.15,2013-09-18 21:12:00,
2013-09-18 16:17:00,91.9,64.1,29.61,South,181,7.0,11.0,40,0.00,,,0.00,Wunderground v.1.15,2013-09-18 21:17:00,
2013-09-18 16:22:00,91.9,64.1,29.61,SSW,198,6.0,7.0,40,0.00,,,0.00,Wunderground v.1.15,2013-09-18 21:22:00,
2013-09-18 16:28:00,92.1,64.3,29.60,SSW,212,6.0,10.0,40,0.00,,,0.00,Wunderground v.1.15,2013-09-18 21:28:00,
2013-09-18 16:34:00,92.4,63.9,29.60,SSW,213,6.0,8.0,39,0.00,,,0.00,Wunderground v.1.15,2013-09-18 21:34:00,
2013-09-18 16:41:00,92.3,64.5,29.60,SSW,197,6.0,6.0,40,0.00,,,0.00,Wunderground v.1.15,2013-09-18 21:41:00,
2013-09-18 16:47:00,92.1,64.3,29.60,SSW,203,5.0,8.0,40,0.00,,,0.00,Wunderground v.1.15,2013-09-18 21:47:00,
2013-09-18 16:53:00,92.2,63.7,29.60,South,188,6.0,6.0,39,0.00,,,0.00,Wunderground v.1.15,2013-09-18 21:53:00,
2013-09-18 16:58:00,92.3,65.2,29.60,South,173,6.0,10.0,41,0.00,,,0.00,Wunderground v.1.15,2013-09-18 21:58:00,
2013-09-18 17:03:00,92.1,63.6,29.60,SSW,207,7.0,10.0,39,0.00,,,0.00,Wunderground v.1.15,2013-09-18 22:03:00,
2013-09-18 17:09:00,92.2,64.4,29.60,SSW,207,6.0,10.0,40,0.00,,,0.00,Wunderground v.1.15,2013-09-18 22:09:00,
2013-09-18 17:14:00,92.3,63.8,29.60,SSW,198,5.0,6.0,39,0.00,,,0.00,Wunderground v.1.15,2013-09-18 22:14:00,
2013-09-18 17:20:00,92.1,63.6,29.60,SSW,211,5.0,5.0,39,0.00,,,0.00,Wunderground v.1.15,2013-09-18 22:20:00,
2013-09-18 17:25:00,92.1,63.6,29.59,SSW,211,5.0,6.0,39,0.00,,,0.00,Wunderground v.1.15,2013-09-18 22:25:00,
2013-09-18 17:30:00,91.8,63.3,29.59,SSW,211,4.0,6.0,39,0.00,,,0.00,Wunderground v.1.15,2013-09-18 22:30:00,
2013-09-18 17:36:00,91.5,63.8,29.59,SSW,211,4.0,6.0,40,0.00,,,0.00,Wunderground v.1.15,2013-09-18 22:36:00,
2013-09-18 17:42:00,91.2,63.5,29.60,SSW,211,4.0,6.0,40,0.00,,,0.00,Wunderground v.1.15,2013-09-18 22:42:00,
2013-09-18 17:48:00,90.8,64.5,29.59,SSW,211,3.0,6.0,42,0.00,,,0.00,Wunderground v.1.15,2013-09-18 22:48:00,
2013-09-18 17:53:00,90.5,64.3,29.59,SSW,211,3.0,6.0,42,0.00,,,0.00,Wunderground v.1.15,2013-09-18 22:53:00,
2013-09-18 17:59:00,90.4,64.2,29.59,SSW,211,1.0,6.0,42,0.00,,,0.00,Wunderground v.1.15,2013-09-18 22:59:00,
2013-09-18 18:05:00,90.3,64.8,29.59,SSW,211,1.0,6.0,43,0.00,,,0.00,Wunderground v.1.15,2013-09-18 23:05:00,
2013-09-18 18:10:00,89.9,65.1,29.59,SSW,209,2.0,2.0,44,0.00,,,0.00,Wunderground v.1.15,2013-09-18 23:10:00,
2013-09-18 18:16:00,89.5,64.7,29.59,SSW,209,1.0,6.0,44,0.00,,,0.00,Wunderground v.1.15,2013-09-18 23:16:00,
2013-09-18 18:22:00,89.3,64.5,29.59,SSW,209,1.0,6.0,44,0.00,,,0.00,Wunderground v.1.15,2013-09-18 23:22:00,
2013-09-18 18:28:00,89.1,65.0,29.59,SSW,209,2.0,6.0,45,0.00,,,0.00,Wunderground v.1.15,2013-09-18 23:28:00,
2013-09-18 18:33:00,89.0,64.9,29.59,SSW,209,2.0,6.0,45,0.00,,,0.00,Wunderground v.1.15,2013-09-18 23:33:00,
2013-09-18 18:39:00,88.8,66.0,29.59,SSW,209,1.0,6.0,47,0.00,,,0.00,Wunderground v.1.15,2013-09-18 23:39:00,
2013-09-18 18:44:00,88.7,65.3,29.59,SSW,209,1.0,6.0,46,0.00,,,0.00,Wunderground v.1.15,2013-09-18 23:44:00,
2013-09-18 18:50:00,88.5,65.1,29.59,SSW,209,1.0,6.0,46,0.00,,,0.00,Wunderground v.1.15,2013-09-18 23:50:00,
2013-09-18 18:56:00,88.3,65.5,29.59,SSW,209,1.0,6.0,47,0.00,,,0.00,Wunderground v.1.15,2013-09-18 23:56:00,
2013-09-18 19:01:00,88.2,66.0,29.59,SSW,209,0.0,6.0,48,0.00,,,0.00,Wunderground v.1.15,2013-09-19 00:01:00,
2013-09-18 19:06:00,87.9,65.2,29.59,SSW,209,0.0,6.0,47,0.00,,,0.00,Wunderground v.1.15,2013-09-19 00:06:00,
2013-09-18 19:12:00,87.5,64.8,29.59,SSW,209,1.0,6.0,47,0.00,,,0.00,Wunderground v.1.15,2013-09-19 00:12:00,
2013-09-18 19:17:00,87.1,65.6,29.59,SSW,209,1.0,6.0,49,0.00,,,0.00,Wunderground v.1.15,2013-09-19 00:17:00,
2013-09-18 19:23:00,86.6,65.7,29.59,SSW,209,1.0,6.0,50,0.00,,,0.00,Wunderground v.1.15,2013-09-19 00:23:00,
2013-09-18 19:29:00,85.8,64.4,29.59,SSW,209,0.0,6.0,49,0.00,,,0.00,Wunderground v.1.15,2013-09-19 00:29:00,
2013-09-18 19:34:00,85.4,64.6,29.59,SSW,209,0.0,6.0,50,0.00,,,0.00,Wunderground v.1.15,2013-09-19 00:34:00,
2013-09-18 19:40:00,84.9,64.2,29.59,SSW,209,0.0,6.0,50,0.00,,,0.00,Wunderground v.1.15,2013-09-19 00:40:00,
2013-09-18 19:46:00,84.6,63.9,29.59,SSW,209,0.0,6.0,50,0.00,,,0.00,Wunderground v.1.15,2013-09-19 00:46:00,
2013-09-18 19:52:00,84.3,63.6,29.59,SSW,209,0.0,6.0,50,0.00,,,0.00,Wunderground v.1.15,2013-09-19 00:52:00,
2013-09-18 19:57:00,83.9,63.3,29.60,SSW,209,0.0,6.0,50,0.00,,,0.00,Wunderground v.1.15,2013-09-19 00:57:00,
2013-09-18 20:03:00,83.6,63.0,29.59,SSW,209,0.0,6.0,50,0.00,,,0.00,Wunderground v.1.15,2013-09-19 01:03:00,
2013-09-18 20:09:00,83.3,62.1,29.60,SSW,209,0.0,6.0,49,0.00,,,0.00,Wunderground v.1.15,2013-09-19 01:09:00,
2013-09-18 20:14:00,83.2,62.1,29.60,SSW,209,0.0,6.0,49,0.00,,,0.00,Wunderground v.1.15,2013-09-19 01:14:00,
2013-09-18 20:20:00,83.0,61.9,29.60,SSW,209,2.0,6.0,49,0.00,,,0.00,Wunderground v.1.15,2013-09-19 01:20:00,
2013-09-18 20:25:00,82.8,62.3,29.60,SSW,209,2.0,6.0,50,0.00,,,0.00,Wunderground v.1.15,2013-09-19 01:25:00,
2013-09-18 20:31:00,82.6,62.1,29.60,SSW,209,1.0,6.0,50,0.00,,,0.00,Wunderground v.1.15,2013-09-19 01:31:00,
2013-09-18 20:36:00,82.0,62.1,29.61,SSW,209,0.0,6.0,51,0.00,,,0.00,Wunderground v.1.15,2013-09-19 01:36:00,
2013-09-18 20:42:00,81.5,61.6,29.60,SSW,209,1.0,6.0,51,0.00,,,0.00,Wunderground v.1.15,2013-09-19 01:42:00,
2013-09-18 20:48:00,80.9,62.2,29.61,SSW,209,2.0,6.0,53,0.00,,,0.00,Wunderground v.1.15,2013-09-19 01:48:00,
2013-09-18 20:54:00,80.3,62.1,29.61,SSW,209,2.0,6.0,54,0.00,,,0.00,Wunderground v.1.15,2013-09-19 01:54:00,
2013-09-18 20:59:00,79.8,62.2,29.61,SSW,209,1.0,6.0,55,0.00,,,0.00,Wunderground v.1.15,2013-09-19 01:59:00,
2013-09-18 21:04:00,79.4,61.8,29.61,SSW,209,2.0,6.0,55,0.00,,,0.00,Wunderground v.1.15,2013-09-19 02:04:00,
2013-09-18 21:09:00,79.6,62.0,29.61,SSW,209,3.0,6.0,55,0.00,,,0.00,Wunderground v.1.15,2013-09-19 02:09:00,
2013-09-18 21:16:00,79.8,62.2,29.62,SSW,209,3.0,6.0,55,0.00,,,0.00,Wunderground v.1.15,2013-09-19 02:16:00,
2013-09-18 21:22:00,79.7,62.1,29.63,SSW,209,2.0,6.0,55,0.00,,,0.00,Wunderground v.1.15,2013-09-19 02:22:00,
2013-09-18 21:28:00,79.3,62.2,29.63,SSW,209,2.0,6.0,56,0.00,,,0.00,Wunderground v.1.15,2013-09-19 02:28:00,
2013-09-18 21:33:00,78.9,62.4,29.63,SSW,209,2.0,6.0,57,0.00,,,0.00,Wunderground v.1.15,2013-09-19 02:33:00,
2013-09-18 21:39:00,78.7,62.7,29.63,SSW,209,2.0,6.0,58,0.00,,,0.00,Wunderground v.1.15,2013-09-19 02:39:00,
2013-09-18 21:44:00,78.7,63.2,29.63,SSW,209,3.0,6.0,59,0.00,,,0.00,Wunderground v.1.15,2013-09-19 02:44:00,
2013-09-18 21:50:00,78.7,63.2,29.63,SSW,209,3.0,6.0,59,0.00,,,0.00,Wunderground v.1.15,2013-09-19 02:50:00,
2013-09-18 21:55:00,78.6,63.6,29.64,SSW,209,2.0,6.0,60,0.00,,,0.00,Wunderground v.1.15,2013-09-19 02:55:00,
2013-09-18 22:00:00,78.6,63.6,29.64,SSW,209,2.0,6.0,60,0.00,,,0.00,Wunderground v.1.15,2013-09-19 03:00:00,
2013-09-18 22:07:00,78.6,63.6,29.64,SSW,209,1.0,6.0,60,0.00,,,0.00,Wunderground v.1.15,2013-09-19 03:07:00,
2013-09-18 22:13:00,78.7,64.1,29.63,SSW,209,1.0,6.0,61,0.00,,,0.00,Wunderground v.1.15,2013-09-19 03:13:00,
2013-09-18 22:18:00,78.7,64.1,29.63,SSW,209,3.0,6.0,61,0.00,,,0.00,Wunderground v.1.15,2013-09-19 03:18:00,
2013-09-18 22:23:00,78.9,64.3,29.63,SSW,209,2.0,6.0,61,0.00,,,0.00,Wunderground v.1.15,2013-09-19 03:23:00,
2013-09-18 22:29:00,79.0,64.4,29.63,SSW,209,2.0,6.0,61,0.00,,,0.00,Wunderground v.1.15,2013-09-19 03:29:00,
2013-09-18 22:34:00,79.2,64.1,29.63,SSW,209,3.0,6.0,60,0.00,,,0.00,Wunderground v.1.15,2013-09-19 03:34:00,
2013-09-18 22:40:00,79.2,64.6,29.63,SSW,209,3.0,6.0,61,0.00,,,0.00,Wunderground v.1.15,2013-09-19 03:40:00,
2013-09-18 22:46:00,79.2,64.6,29.63,SSW,209,2.0,6.0,61,0.00,,,0.00,Wunderground v.1.15,2013-09-19 03:46:00,
2013-09-18 22:52:00,79.1,64.5,29.62,SSW,209,2.0,6.0,61,0.00,,,0.00,Wunderground v.1.15,2013-09-19 03:52:00,
2013-09-18 22:57:00,79.1,64.5,29.62,SSW,209,3.0,6.0,61,0.00,,,0.00,Wunderground v.1.15,2013-09-19 03:57:00,
2013-09-18 23:02:00,79.1,64.5,29.62,SSW,209,3.0,6.0,61,0.00,,,0.00,Wunderground v.1.15,2013-09-19 04:02:00,
2013-09-18 23:03:00,79.1,64.5,29.62,SSW,209,4.0,6.0,61,0.00,,,0.00,Wunderground v.1.15,2013-09-19 04:03:00,
2013-09-18 23:05:00,79.0,64.4,29.62,SSW,209,4.0,6.0,61,0.00,,,0.00,Wunderground v.1.15,2013-09-19 04:05:00,
2013-09-18 23:07:00,79.0,64.4,29.62,SSW,209,3.0,6.0,61,0.00,,,0.00,Wunderground v.1.15,2013-09-19 04:07:00,
2013-09-18 23:11:00,78.9,64.3,29.62,SSW,209,3.0,5.0,61,0.00,,,0.00,Wunderground v.1.15,2013-09-19 04:11:00,
2013-09-18 23:15:00,78.9,64.3,29.62,SSW,209,3.0,6.0,61,0.00,,,0.00,Wunderground v.1.15,2013-09-19 04:15:00,
2013-09-18 23:20:00,78.9,64.3,29.63,SSW,209,4.0,6.0,61,0.00,,,0.00,Wunderground v.1.15,2013-09-19 04:20:00,
2013-09-18 23:25:00,78.8,64.7,29.64,SSW,209,3.0,6.0,62,0.00,,,0.00,Wunderground v.1.15,2013-09-19 04:25:00,
2013-09-18 23:30:00,78.4,61.4,29.67,WNW,294,5.0,5.0,56,0.00,,,0.00,Wunderground v.1.15,2013-09-19 04:30:00,
2013-09-18 23:36:00,77.3,56.6,29.67,NW,319,8.0,19.0,49,0.00,,,0.00,Wunderground v.1.15,2013-09-19 04:36:00,
2013-09-18 23:41:00,76.5,57.0,29.67,NW,311,9.0,9.0,51,0.00,,,0.00,Wunderground v.1.15,2013-09-19 04:41:00,
2013-09-18 23:47:00,75.9,56.5,29.68,NW,312,6.0,13.0,51,0.00,,,0.00,Wunderground v.1.15,2013-09-19 04:47:00,
2013-09-18 23:52:00,75.4,56.0,29.69,WNW,295,6.0,7.0,51,0.00,,,0.00,Wunderground v.1.15,2013-09-19 04:52:00,
2013-09-18 23:58:00,74.3,57.6,29.70,WNW,302,6.0,8.0,56,0.00,,,0.00,Wunderground v.1.15,2013-09-19 04:58:00,